Welcome to the New NWS' Forecast!
Most changes are behind the scenes, but click here for differences you might notice.
Latest weather observations around

Hawthorne, Hawthorne Municipal Airport (KHHR)

Using English Units (Switch to International System of Units)
Date/ Time (PDT) Wind (mph) Vis. (mi) Weather Sky Cond. Temp (°F) Rel. Humidity Wind Chill (°F) Heat Index (°F) Pressure Precip. (in)
Air Dwpt 6 hour Altimeter (inHg) Sea level (inHg) 1 hr 3 hr 6 hr
Max Min
Jul 22 23:53 SW 5 10 Clear CLR 70 63     78%     29.98 29.97      
Jul 22 22:53 WSW 5 10 Clear CLR 71 62     73%   71 29.98 29.98      
Jul 22 21:53 SW 5 10 Clear CLR 73 62     68%   73 29.98 29.97      
Jul 22 20:53 W 9 10 Clear CLR 73 63     71%   73 29.97 29.96      
Jul 22 19:53 W 10 10 Clear CLR 73 64     73%   73 29.96 29.95      
Jul 22 18:53 WSW 11 10 Clear CLR 75 63     66%   75 29.95 29.95      
Jul 22 17:53 W 11 10 Clear CLR 77 64     64%   77 29.95 29.95      
Jul 22 16:53 W 14 10 Clear CLR 78 62     58%   78 29.97 29.97      
Jul 22 15:53 W 15 10 Clear CLR 79 65     62%   80 29.98 29.98      
Jul 22 15:31 W 16 6 Haze CLR 79 65     62%   80 29.98        
Jul 22 15:26 WSW 15 1 Haze CLR 78 65     64%   79 29.98        
Jul 22 14:53 WNW 11 10 Clear CLR 79 61     54%   79 30 29.99      
Jul 22 13:53 W 15 10 Clear CLR 81 58     45%   81 30.01 30      
Jul 22 12:53 W 10 10 Clear CLR 80 63     56%   81 30.02 30.02      
Jul 22 11:53 WSW 10 10 Clear CLR 82 64     55%   84 30.03 30.03      
Jul 22 10:53 W 6 10 Clear CLR 79 65     62%   80 30.03 30.03      
Jul 22 09:53 5 10 Clear CLR 77 62     60%   77 30.03 30.03      
Jul 22 08:53 Calm 10 Clear CLR 73 64     73%   73 30.04 30.03      
Jul 22 07:53 W 3 10 Clear CLR 71 64     79%   72 30.05 30.04      
Jul 22 06:53 WNW 3 10 Clear CLR 69 64     84%     30.03 30.03      
Jul 22 05:53 Calm 10 Clear CLR 69 64     84%     30.03 30.02      
Jul 22 04:53 Calm 10 Clear CLR 69 64     84%     30.02 30.01      
Jul 22 03:53 W 3 10 Clear CLR 69 64     84%     30.02 30.01      
Jul 22 02:53 Calm 10 Clear CLR 68 64     87%     30.02 30.01      
Jul 22 01:53 SW 3 10 Clear CLR 68 64     87%     30.02 30.02      
Jul 22 00:53 Calm 10 Partly Cloudy SCT013 69 63     81%     30.03 30.03      
Jul 22 00:50 SW 5 10 Partly Cloudy SCT013 70 63     78%     30.03        
Jul 21 23:53 SW 5 10 Cloudy OVC012 69 64     84%     30.04 30.03      
Jul 21 23:13 SW 7 10 Mostly Cloudy BKN012 69 64     84%     30.03        
Jul 21 22:53 WSW 7 10 Partly Cloudy SCT012 69 64     84%     30.03 30.02      
Jul 21 21:53 SW 9 10 Clear CLR 70 63     78%     30.01 30.01      
Jul 21 20:53 WSW 11 10 Clear CLR 70 64     81%     29.98 29.98      
Jul 21 19:53 W 14 10 Clear CLR 72 64     76%   72 29.96 29.96      
Jul 21 18:53 W 15 10 Clear CLR 74 65     74%   74 29.95 29.95      
Jul 21 17:53 W 15 10 Clear CLR 75 64     69%   75 29.94 29.94      
Jul 21 16:53 WNW 11 10 Clear CLR 75 63     66%   75 29.94 29.94      
Jul 21 15:53 W 18 10 Clear CLR 75 62     64%   75 29.96 29.95      
Jul 21 14:53 WSW 15 10 Clear CLR 77 59     54%   77 29.98 29.98      
Jul 21 13:53 W 8 10 Clear CLR 77 62     60%   77 29.99 29.98      
Jul 21 12:53 W 10 10 Clear CLR 75 62     64%   75 30 30      
Jul 21 11:53 W 9 10 Clear CLR 74 62     66%   74 30.01 30      
Jul 21 10:53 W 9 10 Clear CLR 74 63     69%   74 30.01 30      
Jul 21 09:53 7 10 Partly Cloudy SCT016 71 63     76%   71 30.01 30.01      
Jul 21 08:53 3 10 Partly Cloudy SCT015 70 63     78%     30.01 30.01      
Jul 21 08:49 7 10 Partly Cloudy SCT015 70 63     78%     30.01        
Jul 21 08:29 SW 7 10 Cloudy OVC015 69 62     78%     30.01        
Jul 21 07:53 W 7 10 Cloudy OVC014 69 63     81%     30 29.99      
Jul 21 06:53 W 6 10 Cloudy OVC014 69 63     81%     29.98 29.97      
Jul 21 06:38 W 7 10 Cloudy OVC014 69 63     81%     29.97        
Jul 21 06:26 W 6 10 Cloudy OVC015 69 63     81%     29.97        
Jul 21 05:53 W 5 10 Cloudy OVC014 69 63     81%     29.97 29.97      
Jul 21 04:53 WNW 6 10 Cloudy OVC014 69 63     81%     29.97 29.96      
Jul 21 04:36 W 5 10 Cloudy OVC014 69 63     81%     29.97        
Jul 21 03:53 W 5 10 Cloudy OVC015 69 63     81%     29.97 29.96      
Jul 21 03:42 WNW 5 10 Cloudy OVC015 70 63     78%     29.97        
Jul 21 02:53 W 5 10 Cloudy OVC012 70 64     81%     29.97 29.96      
Jul 21 01:53 WNW 5 10 Cloudy OVC013 70 64     81%     29.96 29.96      
Jul 21 00:53 WSW 8 10 Cloudy OVC013 70 64     81%     29.97 29.96      
Jul 20 23:53 W 8 10 Cloudy OVC013 69 63     81%     29.98 29.97      
Jul 20 22:53 WSW 9 10 Cloudy OVC012 69 64     84%     29.97 29.96      
Jul 20 22:26 W 7 10 Mostly Cloudy BKN012 70 64     81%     29.97        
Jul 20 21:53 WSW 9 10 Clear CLR 69 63     81%     29.96 29.95      
Jul 20 20:53 W 7 10 Clear CLR 70 63     78%     29.94 29.93      
Jul 20 19:53 WSW 10 10 Clear CLR 71 63     76%   71 29.93 29.92      
Jul 20 18:53 WNW 6 10 Clear CLR 72 63     73%   72 29.92 29.91      
Jul 20 17:53 W 14 10 Clear CLR 74 62     66%   74 29.92 29.91      
Jul 20 16:53 W 13 10 Clear CLR 74 62     66%   74 29.93 29.92      
Jul 20 15:53 W 11 10 Clear CLR 77 62     60%   77 29.94 29.93      
Jul 20 14:53 SW 11 10 Clear CLR 76 61     60%   76 29.95 29.94      
Jul 20 13:53 W 10 10 Clear CLR 77 61     58%   77 29.96 29.96      
Jul 20 12:53 WSW 13 10 Clear CLR 75 62     64%   75 29.97 29.97      
Jul 20 11:53 W 13 10 Clear CLR 74 63     69%   74 29.98 29.97      
Jul 20 10:53 WSW 11 10 Clear CLR 75 64     69%   75 29.98 29.97      
Jul 20 09:53 W 10 10 Clear CLR 73 64     73%   73 29.97 29.96      
Jul 20 08:53 WSW 8 10 Clear CLR 72 65     79%   73 29.95 29.95      
Jul 20 07:53 Calm 10 Mostly Clear FEW013 71 65     81%   72 29.94 29.94      
Jul 20 06:53 W 5 10 Clear CLR 69 64     84%     29.94 29.94      
Jul 20 06:20 W 5 10 Partly Cloudy SCT011 69 64     84%     29.94        
Jul 20 05:53 W 6 10 Mostly Cloudy BKN011 69 64     84%     29.94 29.94      
Jul 20 04:53 W 5 10 Cloudy OVC010 69 64     84%     29.93 29.93      
Jul 20 04:23 WSW 6 10 Mostly Cloudy BKN010 68 64     87%     29.93        
Jul 20 04:07 WSW 5 10 Partly Cloudy SCT009 69 64     84%     29.93        
Jul 20 03:53 W 6 10 Clear CLR 69 64     84%     29.93 29.93      
Jul 20 02:53 W 6 10 Clear CLR 69 64     84%     29.93 29.92      
Jul 20 01:53 WSW 5 10 Clear CLR 69 64     84%     29.93 29.92      
Jul 20 00:53 WSW 5 10 Mostly Clear FEW120 70 64     81%     29.94 29.93      
May 15 07:44 SW 5 10 Mostly Cloudy BKN019 59 52     78%     30.05        
May 14 09:16 Calm 10 Partly Cloudy SCT019 61 52     72%     29.99        
May 14 04:53 Calm 10 Clear CLR 58 52     81%     29.96 29.96      
May 13 13:53 3 10 Mostly Cloudy BKN033 66 51     59%     30.03 30.02      
May 13 09:53 W 7 10 Cloudy OVC027 61 51     70%     30.06 30.06      
May 12 09:53 SSE 6 10 Cloudy OVC033 61 50     67%     29.98 29.98      
May 12 00:53 ESE 7 10 Cloudy SCT028 OVC036 60 55     83%     29.89 29.88      
May 11 22:40 6 10 Cloudy FEW019 BKN030 OVC041 61 55     81%     29.88        
May 11 18:53 ESE 8 10 Cloudy BKN021 OVC033 62 53     72%     29.82 29.82      
Jun 12 02:53 E 3 10 Clear CLR 59 52     78%     29.97 29.97      
Jun 11 14:53 SW 11 10 Partly Cloudy FEW024 SCT029 69 54     59%     29.92 29.92      
Jun 11 03:53 SE 6 10 Cloudy OVC031 62 56     80%     29.86 29.85 0    
Jun 11 03:44 SE 6 10 Cloudy OVC031 62 56     80%     29.86   0    
Jun 10 21:53 WSW 7 10 Mostly Cloudy BKN025 64 56     75%     29.88 29.87      
Jun 10 20:15 WSW 8 10 Mostly Cloudy BKN025 65 55     70%     29.85        
Jun 10 12:53 S 9 10 Mostly Clear FEW029 69 56     63%     29.88 29.88      
Jun 10 08:53 SE 7 10 Cloudy OVC027 64 56     75%     29.9 29.89      
Jun 09 18:53 WSW 15 10 Mostly Cloudy BKN011 BKN014 66 61     84%     29.89 29.89      
Jun 09 00:53 SE 3 10 Clear CLR 61 57     87%     29.95 29.94      
Jun 08 08:53 WSW 7 10 Cloudy BKN011 OVC015 62 59     90%     30.01 30.01 0    
Jun 08 07:53 W 6 10 Cloudy SCT008 OVC015 62 59     90%     30 30      
Jun 08 01:04 WSW 6 10 Cloudy BKN007 OVC012 61 59     93%     29.99        
Jun 08 00:27 WSW 3 9 Cloudy SCT006 OVC013 61 60     97%     29.99   0    
Jun 06 09:53 S 5 9 Cloudy OVC014 64 59     84%     29.95 29.95